This demonstration page uses our WeatherBlox Daily Observations layout. Learn more.

Left ArrowRight Arrow

Hourly Observations for July 7, 2016

Temp ( °F °C ) Dew Point ( °F °C ) Humidity (%) Winds ( mph kmh ) Pressure ( in mb ) Visibility ( mi km ) Precip ( " mm )
12:59 am 00:59 Mostly Cloudy 79 26.1 75 23.9 88 88 SW 5 7 29.89 1012 8 13 0.00 0.00
1:59 am 01:59 Clear 80 26.7 75 23.9 85 85 WSW 5 7 29.88 1012 9 14 0.00 0.00
2:59 am 02:59 Mostly Clear 78 25.6 75 23.9 90 90 SW 5 7 29.86 1011 9 14 0.00 0.00
3:59 am 03:59 Mostly Clear 78 25.6 74 23.3 87 87 SSW 5 7 29.84 1011 8 13 0.00 0.00
4:59 am 04:59 Clear 78 25.6 74 23.3 87 87 SW 6 9 29.84 1011 8 13 0.00 0.00
5:59 am 05:59 Sunny 77 25 74 23.3 90 90 SW 5 7 29.85 1011 8 13 0.00 0.00
6:59 am 06:59 Sunny 79 26.1 75 23.9 88 88 VRB 5 7 29.86 1011 7 11 0.00 0.00
7:59 am 07:59 Sunny 81 27.2 75 23.9 82 82 SW 7 11 29.88 1012 8 13 0.00 0.00
8:59 am 08:59 Mostly Sunny 83 28.3 76 24.4 79 79 SW 7 11 29.89 1012 8 13 0.00 0.00
9:59 am 09:59 Mostly Sunny 84 28.9 75 23.9 74 74 W 7 11 29.88 1012 7 11 0.00 0.00
10:59 am 10:59 Mostly Sunny 88 31.1 76 24.4 68 68 W 6 9 29.88 1012 8 13 0.00 0.00
11:59 am 11:59 Mostly Sunny 91 32.8 77 25 64 64 SW 7 11 29.86 1011 8 13 0.00 0.00
12:59 pm 12:59 Partly Cloudy 92 33.3 76 24.4 60 60 SW 9 15 29.86 1011 9 14 0.00 0.00
1:59 pm 13:59 Partly Cloudy 92 33.3 75 23.9 58 58 W 12 19 29.84 1010 8 13 0.00 0.00
2:59 pm 14:59 Mostly Sunny 93 33.9 74 23.3 54 54 W 14 22 29.82 1010 9 14 0.00 0.00
3:59 pm 15:59 Mostly Sunny 93 33.9 73 22.8 52 52 W 13 20 29.81 1010 9 14 0.00 0.00
4:59 pm 16:59 Mostly Sunny 93 33.9 74 23.3 54 54 WSW 13 20 29.81 1009 9 14 0.00 0.00
5:59 pm 17:59 Mostly Sunny 92 33.3 73 22.8 54 54 WSW 9 15 29.80 1009 9 14 0.00 0.00
6:59 pm 18:59 Partly Cloudy 91 32.8 72 22.2 54 54 W 12 19 29.81 1009 10 16 0.00 0.00
7:59 pm 19:59 Mostly Cloudy 89 31.7 73 22.8 59 59 WSW 7 11 29.80 1009 9 14 0.00 0.00
8:59 pm 20:59 Mostly Cloudy 86 30 74 23.3 67 67 SW 5 7 29.81 1010 10 16 0.00 0.00
9:59 pm 21:59 Mostly Cloudy 85 29.4 74 23.3 70 70 SSW 5 7 29.83 1010 10 16 0.00 0.00
10:59 pm 22:59 Cloudy 81 27.2 71 21.7 72 72 NW 17 28 29.85 1011 10 16 0.00 0.00
11:05 pm 23:05 Cloudy with Thunderstorms 80 26.7 72 22.2 76 76 NNW 16 26 29.85 1011 10 16 0.00 0.00
11:51 pm 23:51 Cloudy with Strong Thunderstorms 76 24.4 73 22.8 91 91 WSW 7 11 29.88 1012 2 3 0.07 1.78
11:59 pm 23:59 Cloudy with Strong Thunderstorms 76 24.4 73 22.8 91 91 W 8 13 29.88 1012 2 3 0.11 2.79

Powered by AerisWeather